This demonstration page uses our WeatherBlox Daily Observations layout. Learn more.

Left ArrowRight Arrow

36.17497, -115.13722

Hourly Observations for April 12, 2017

Temp ( °F °C ) Dew Point ( °F °C ) Humidity (%) Winds ( mph kmh ) Pressure ( in mb ) Visibility ( mi km ) Precip ( " mm )
12:53 am 00:53 Clear 59 15 23 -5 25 25 NE 5 7 29.92 1013 10 16.0934 N/A
1:53 am 01:53 Clear 58 14.4 23 -5 26 26 NW 6 9 29.92 1013 10 16.0934 N/A
2:53 am 02:53 Clear 57 13.9 23 -5 27 27 N 6 9 29.93 1014 10 16.0934 N/A
3:53 am 03:53 Clear 56 13.3 23 -5 28 28 NW 6 9 29.93 1014 10 16.0934 N/A
4:53 am 04:53 Clear 56 13.3 25 -3.9 30 30 WNW 3 6 29.95 1014 10 16.0934 N/A
5:53 am 05:53 Clear 55 12.8 26 -3.3 33 33 NW 6 9 29.95 1014 10 16.0934 N/A
6:53 am 06:53 Sunny 55 12.8 28 -2.2 35 35 NW 5 7 29.98 1015 10 16.0934 N/A
7:53 am 07:53 Sunny 59 15 29 -1.7 32 32 N 3 6 29.99 1016 10 16.0934 N/A
8:53 am 08:53 Sunny 64 17.8 28 -2.2 26 26 N N/A 30 1016 10 16.0934 N/A
9:53 am 09:53 Sunny 68 20 31 -0.6 25 25 N N/A 30 1016 10 16.0934 N/A
10:53 am 10:53 Sunny 74 23.3 34 1.1 23 23 VRB 5 7 29.98 1015 10 16.0934 N/A
11:53 am 11:53 Sunny 76 24.4 32 undefined 20 20 SE 12 19 29.97 1015 10 16.0934 N/A
12:53 pm 12:53 Sunny 79 26.1 28 -2.2 15 15 S 10 17 29.94 1014 10 16.0934 N/A
1:42 pm 13:42 Sunny 82 28 19 -7 9 9 SW 13 20 29.77 1008 10 16.0934 N/A
1:53 pm 13:53 Sunny 83 28.3 18 -7.8 9 9 S 14 22 29.91 1013 10 16.0934 N/A
2:53 pm 14:53 Sunny 85 29.4 22 -5.6 10 10 WSW 13 20 29.88 1012 10 16.0934 N/A
3:53 pm 15:53 Sunny 85 29.4 23 -5 10 10 WSW 12 19 29.85 1011 10 16.0934 N/A
4:53 pm 16:53 Sunny 85 29.4 24 -4.4 11 11 WSW 16 26 29.84 1010 10 16.0934 N/A
5:53 pm 17:53 Sunny 84 28.9 21 -6.1 10 10 SW 14 22 29.83 1010 10 16.0934 N/A
6:53 pm 18:53 Sunny 82 27.8 8 -13.3 6 6 W 10 17 29.83 1010 10 16.0934 N/A
7:53 pm 19:53 Clear 79 26.1 12 -11.1 8 8 SW 7 11 29.85 1011 10 16.0934 N/A
8:53 pm 20:53 Clear 77 25 22 -5.6 13 13 SSW 9 15 29.86 1011 10 16.0934 N/A
9:53 pm 21:53 Clear 74 23.3 26 -3.3 17 17 S 9 15 29.87 1012 10 16.0934 N/A
10:53 pm 22:53 Clear 74 23.3 27 -2.8 17 17 SSW 6 9 29.85 1011 10 16.0934 N/A
11:53 pm 23:53 Clear 72 22.2 27 -2.8 19 19 SSW 7 11 29.84 1011 10 16.0934 N/A

Powered by AerisWeather